OPS 4682 DEB, 1316

Orbit data source: Space-Track

OPS 4682 DEB, 1316 is space debris in LEO originally from a launch on Sat, 03 Apr 1965 UTC launched from the Air Force Western Test Range (AFWTR). Debris objects in space refer to the collection of defunct objects orbiting the Earth. Examples of debris include non-operational satellites, rocket bodies, and fragments generated from explosions, collisions, or faulty payload assembly.

Loading next visibility...
OPS 4682 DEB details
Identifier
1316, 1965-027C
Orbit
LEO
Last TLE update1 day ago
Origin
Flag of USUSAF SSD (US)
ManufacturerUnknown
MissionSpacecraft
Bus & MotorUnknown
Mass7 kg wet, 7 kg dry
Launch date (UTC)
1965-04-03 (60 years ago)
Launch vehicleUnknown
Launch site
Air Force Western Test Range (AFWTR)
Object type
Payload
Rocket body
Debris
Shape & HBRHalf Cyl, 2 m
Radar Cross Section2.370 m², Medium (>0.1 m² and < 1m²)

Expand to show TLE details & history

TLE from 1 day ago
0 OPS 4682 DEB
1 01316U 65027C   25035.50029378  .00001431  00000-0  34462-2 0  9990
2 01316  90.2491  15.3381 0034679 107.1973 253.2963 13.21548351853241
Epoch: 2025-02-04T12:00Z
Definitive object data (Epoch: 2025-02-04T12:00:25.382Z)
Latitude0.00003°
Longitude60.32765°
Altitude1,189.341 km
Speed7.255 km/s
True Right ascension01h 01m 21s
True Declination0° 00' 00"
Sunlit
Object was in daylight at TLE epoch
Visualization TLE readout
Latitude-66.57939°
Longitude-120.21978°
Altitude1,224.752 km
Speed7.232 km/s
Apparent Right ascension05h 08m 04s
Apparent Declination-76° 17' 34"
Sunlit
Object is in daylight
Visualization observer readout
Local Sidereal Time14:55:23
Azimuth191.851° SSW
Elevation-50.852°
Doppler factor1
Orbital elements
Apogee altitude1,202.1 km
Perigee altitude1,149.707 km
Semi-major axis7,554.04 km
Eccentricity0.0034679
Inclination90.2491°
RAAN15.3381°
Arg. of periapsis107.1973°
True anomaly252.91615°
Mean anomaly253.2963°
Eccentric anomaly253.10618°
Mean motion3.30578 °/min
BSTAR0.0034462
Orbital period108.9 mins
Loading maneuver chart data...
Loading historical data...
Loading historical data...
Loading historical data...
Loading historical data...
Loading historical data...
Loading historical data...
Loading historical data...

OPS 4682 DEB Visibility forecast

Observer location: undefined°, undefined

Span
Click to sort rows by Start time (UTC) header in descending order
Start Az.
Max El. time (UTC)
Max El. Az.
Max El.
End time (UTC)
End Az.
12 mins2025-02-05 22:38:09.821Z167.268° S2025-02-05 22:44:09.821Z72.399° E44.046°2025-02-05 22:50:09.821Z1.649° NNE
7 mins2025-02-06 00:30:09.821Z251.351° W2025-02-06 00:33:09.821Z279.703° WNW17.01°2025-02-06 00:37:09.821Z317.3° NNW
11 mins2025-02-06 10:03:09.821Z22.647° NE2025-02-06 10:08:09.821Z83.942° E33.689°2025-02-06 10:14:09.821Z152.834° SSE
10 mins2025-02-06 11:52:09.821Z336.485° NNW2025-02-06 11:57:09.821Z277.111° WNW28.54°2025-02-06 12:02:09.821Z226.269° WSW
|